Piney Island, NC

1:56 PM EST on January 17, 2018 (GMT -0500)
Piney Island

Weather History for KNBT - December, 2013

Change the Weather History Date:

Thursday, December 12, 2013

  Actual Average (KMRH) Record (KMRH)
Temperature  
Mean Temperature 42 °F -  
Max Temperature 46 °F 59 °F 72 °F (1991)
Min Temperature 37 °F 39 °F 16 °F (1957)
Degree Days  
Heating Degree Days 24    
Moisture  
Dew Point 30 °F    
Average Humidity 62    
Maximum Humidity 73    
Minimum Humidity 50    
Precipitation  
Precipitation 0.00 in - - ()
Sea Level Pressure  
Sea Level Pressure 30.33 in    
Wind  
Wind Speed 10 mph (North)    
Max Wind Speed 18 mph    
Max Gust Speed 25 mph    
Averages and records for this station are not official NWS values.
T = Trace of Precipitation, MM = Missing Value Source: NWS Daily Summary

Daily Weather History Graph

Daily Weather History Graph

Search for Another Location

Airport or City:

Trip Planner

Search our weather history database for the weather conditions in past years. The results will help you decide how hot, cold, wet, or windy it might be!

Date:

Astronomy

Dec. 12, 2013 Rise Set
Actual Time 7:04 AM EST 4:54 PM EST
Civil Twilight 6:36 AM EST 5:22 PM EST
Nautical Twilight 6:04 AM EST 5:54 PM EST
Astronomical Twilight 5:34 AM EST 6:25 PM EST
Moon 1:53 PM EST (12/12) 2:33 AM EST (12/12)
Length of Visible Light 10h 46m
Length of Day
9h 50m
Waxing Gibbous, 80% of the Moon is Illuminated
Dec 12
Waxing Gibbous
Dec 17
Full
Dec 25
Last Quarter
Jan 1
New
Jan 7
First Quarter

Hourly Weather History & Observations

Time (EST) Temp. Windchill Dew Point Humidity Pressure Visibility Wind Dir Wind Speed Gust Speed Precip Events Conditions
12:56 AM 42.1 °F 37.7 °F 32.0 °F 67% 30.29 in - WNW 6.9 mph - N/A   Clear
1:56 AM 41.0 °F 36.4 °F 30.9 °F 67% 30.27 in - NW 6.9 mph - N/A   Clear
2:56 AM 41.0 °F 35.2 °F 30.0 °F 65% 30.27 in - NW 9.2 mph - N/A   Clear
3:56 AM 41.0 °F 35.8 °F 30.9 °F 67% 30.27 in - WNW 8.1 mph - N/A   Clear
4:56 AM 42.1 °F 36.6 °F 30.9 °F 65% 30.27 in - NW 9.2 mph - N/A   Clear
5:56 AM 44.1 °F 37.7 °F 32.0 °F 63% 30.27 in - NNW 12.7 mph - N/A   Clear
6:56 AM 44.1 °F 38.1 °F 30.9 °F 60% 30.28 in - North 11.5 mph - N/A   Clear
7:56 AM 44.1 °F 37.7 °F 28.9 °F 55% 30.31 in - North 12.7 mph - N/A   Clear
8:56 AM 45.0 °F 38.2 °F 28.9 °F 53% 30.33 in - North 15.0 mph - N/A   Clear
9:56 AM 46.0 °F 38.8 °F 28.0 °F 50% 30.36 in - NNW 18.4 mph 25.3 mph N/A   Clear
10:56 AM 45.0 °F 37.4 °F 30.9 °F 58% 30.37 in - North 18.4 mph 25.3 mph N/A   Clear
11:56 AM 45.0 °F 37.9 °F 32.0 °F 60% 30.35 in - North 16.1 mph - N/A   Clear
12:56 PM 46.0 °F 40.2 °F 30.9 °F 56% 30.33 in - North 12.7 mph - N/A   Clear
1:56 PM 46.0 °F 41.0 °F 30.9 °F 56% 30.31 in - North 10.4 mph 21.9 mph N/A   Partly Cloudy
2:56 PM 45.0 °F 38.9 °F 28.9 °F 53% 30.32 in - North 12.7 mph - N/A   Scattered Clouds
3:56 PM 44.1 °F 38.1 °F 27.0 °F 51% 30.34 in - North 11.5 mph - N/A   Partly Cloudy
4:56 PM 41.0 °F 36.4 °F 30.0 °F 65% 30.35 in - North 6.9 mph - N/A   Clear
5:56 PM 39.9 °F 33.9 °F 30.0 °F 68% 30.38 in - North 9.2 mph - N/A   Clear
6:56 PM 39.9 °F 33.9 °F 30.0 °F 68% 30.40 in - NE 9.2 mph - N/A   Clear
7:56 PM 37.9 °F 32.7 °F 30.0 °F 73% 30.40 in - NNE 6.9 mph - N/A   Clear
8:56 PM 39.0 °F 34.8 °F 28.9 °F 67% 30.41 in - North 5.8 mph - N/A   Clear
9:56 PM 39.9 °F 35.8 °F 28.0 °F 63% 30.40 in - North 5.8 mph - N/A   Clear
10:56 PM 39.9 °F 36.7 °F 27.0 °F 60% 30.38 in - North 4.6 mph - N/A   Clear
11:56 PM 37.9 °F - 28.0 °F 68% 30.37 in - Calm Calm - N/A   Clear